Time,TemperatureF,DewpointF,PressureIn,WindDirection,WindDirectionDegrees,WindSpeedMPH,WindSpeedGustMPH,Humidity,HourlyPrecipIn,Conditions,Clouds,dailyrainin,SoftwareType,DateUTC
2013-09-07 00:00:00,68.0,66.2,30.09,NE,56,0.0,0.0,94,0.00,,---,0.01,VWS V14.01,2013-09-07 04:00:00,
2013-09-07 00:01:00,68.1,66.3,30.09,NE,56,0.0,0.0,94,0.00,,---,0.01,VWS V14.01,2013-09-07 04:01:00,
2013-09-07 00:06:00,68.1,66.3,30.09,NE,56,0.0,0.0,94,0.00,,---,0.00,VWS V14.01,2013-09-07 04:06:00,
2013-09-07 00:11:00,68.0,66.5,30.08,NE,56,0.0,0.0,95,0.00,,---,0.00,VWS V14.01,2013-09-07 04:11:00,
2013-09-07 00:16:00,67.9,66.1,30.08,NE,56,0.0,0.0,94,0.00,,---,0.00,VWS V14.01,2013-09-07 04:16:00,
2013-09-07 00:21:00,67.8,66.0,30.09,NE,56,0.0,0.0,94,0.00,,---,0.00,VWS V14.01,2013-09-07 04:21:00,
2013-09-07 00:26:00,67.8,66.0,30.09,NE,56,0.0,0.0,94,0.00,,---,0.00,VWS V14.01,2013-09-07 04:26:00,
2013-09-07 00:30:00,67.8,66.3,30.09,NE,56,0.0,0.0,95,0.00,,---,0.00,VWS V14.01,2013-09-07 04:30:00,
2013-09-07 00:31:00,67.8,66.3,30.09,NE,56,0.0,0.0,95,0.00,,---,0.00,VWS V14.01,2013-09-07 04:31:00,
2013-09-07 00:36:00,67.7,66.2,30.09,NE,56,0.0,0.0,95,0.00,,---,0.00,VWS V14.01,2013-09-07 04:36:00,
2013-09-07 00:41:00,67.7,66.2,30.08,NE,56,0.0,1.0,95,0.00,,---,0.00,VWS V14.01,2013-09-07 04:41:00,
2013-09-07 00:46:00,67.7,66.2,30.08,NE,56,0.0,1.0,95,0.00,,---,0.00,VWS V14.01,2013-09-07 04:46:00,
2013-09-07 00:51:00,67.6,66.1,30.08,NE,56,0.0,1.0,95,0.00,,---,0.00,VWS V14.01,2013-09-07 04:51:00,
2013-09-07 00:56:00,67.5,66.0,30.08,NE,56,0.0,1.0,95,0.00,,---,0.00,VWS V14.01,2013-09-07 04:56:00,
2013-09-07 01:00:00,67.4,65.9,30.09,NE,56,0.0,1.0,95,0.00,,---,0.00,VWS V14.01,2013-09-07 05:00:00,
2013-09-07 01:01:00,67.4,65.9,30.09,NE,56,0.0,1.0,95,0.00,,---,0.00,VWS V14.01,2013-09-07 05:01:00,
2013-09-07 01:06:00,67.5,66.0,30.09,NE,56,0.0,1.0,95,0.00,,---,0.00,VWS V14.01,2013-09-07 05:06:00,
2013-09-07 01:11:00,67.6,66.1,30.09,NE,56,0.0,1.0,95,0.00,,---,0.00,VWS V14.01,2013-09-07 05:11:00,
2013-09-07 01:16:00,67.7,66.2,30.09,NE,56,0.0,2.0,95,0.00,,---,0.00,VWS V14.01,2013-09-07 05:16:00,
2013-09-07 01:21:00,67.7,66.2,30.09,NE,56,0.0,2.0,95,0.00,,---,0.00,VWS V14.01,2013-09-07 05:21:00,
2013-09-07 01:26:00,67.7,66.2,30.09,NE,56,0.0,2.0,95,0.00,,---,0.00,VWS V14.01,2013-09-07 05:26:00,
2013-09-07 01:30:00,67.5,66.0,30.09,NE,56,0.0,2.0,95,0.00,,---,0.00,VWS V14.01,2013-09-07 05:30:00,
2013-09-07 01:31:00,67.6,66.1,30.09,NE,56,0.0,2.0,95,0.00,,---,0.00,VWS V14.01,2013-09-07 05:31:00,
2013-09-07 01:36:00,67.5,66.0,30.08,NE,56,0.0,0.0,95,0.00,,---,0.00,VWS V14.01,2013-09-07 05:36:00,
2013-09-07 01:41:00,67.4,65.9,30.08,NE,56,0.0,0.0,95,0.00,,---,0.00,VWS V14.01,2013-09-07 05:41:00,
2013-09-07 01:46:00,67.3,65.8,30.08,NE,56,0.0,1.0,95,0.00,,---,0.00,VWS V14.01,2013-09-07 05:46:00,
2013-09-07 01:51:00,67.3,65.8,30.08,NE,56,0.0,1.0,95,0.00,,---,0.00,VWS V14.01,2013-09-07 05:51:00,
2013-09-07 01:56:00,67.3,65.8,30.08,NE,56,0.0,1.0,95,0.00,,---,0.00,VWS V14.01,2013-09-07 05:56:00,
2013-09-07 02:00:00,67.3,65.8,30.08,NE,56,0.0,1.0,95,0.00,,---,0.00,VWS V14.01,2013-09-07 06:00:00,
2013-09-07 02:01:00,67.3,65.8,30.08,NE,56,0.0,1.0,95,0.00,,---,0.00,VWS V14.01,2013-09-07 06:01:00,
2013-09-07 02:06:00,67.3,65.8,30.08,NE,56,0.0,0.0,95,0.00,,---,0.00,VWS V14.01,2013-09-07 06:06:00,
2013-09-07 02:11:00,67.2,65.7,30.08,NE,56,0.0,0.0,95,0.00,,---,0.00,VWS V14.01,2013-09-07 06:11:00,
2013-09-07 02:16:00,67.2,65.7,30.08,NE,56,0.0,1.0,95,0.00,,---,0.00,VWS V14.01,2013-09-07 06:16:00,
2013-09-07 02:21:00,67.3,65.8,30.08,NE,56,0.0,1.0,95,0.00,,---,0.00,VWS V14.01,2013-09-07 06:21:00,
2013-09-07 02:26:00,67.3,65.8,30.08,NE,56,0.0,1.0,95,0.00,,---,0.00,VWS V14.01,2013-09-07 06:26:00,
2013-09-07 02:30:00,67.2,65.7,30.07,NE,56,0.0,1.0,95,0.00,,---,0.00,VWS V14.01,2013-09-07 06:30:00,
2013-09-07 02:31:00,67.2,65.7,30.07,NE,56,0.0,1.0,95,0.00,,---,0.00,VWS V14.01,2013-09-07 06:31:00,
2013-09-07 06:16:00,67.2,65.7,30.07,NE,56,0.0,0.0,95,0.00,,---,0.00,VWS V14.01,2013-09-07 10:16:00,
2013-09-07 06:21:00,65.1,63.9,30.08,NE,56,0.0,0.0,96,0.01,,---,0.01,VWS V14.01,2013-09-07 10:21:00,
2013-09-07 06:26:00,65.0,63.8,30.08,NE,56,0.0,0.0,96,0.01,,---,0.01,VWS V14.01,2013-09-07 10:26:00,
2013-09-07 06:30:00,64.9,63.7,30.08,NE,56,0.0,0.0,96,0.01,,---,0.01,VWS V14.01,2013-09-07 10:30:00,
2013-09-07 06:31:00,65.0,63.8,30.08,NE,56,0.0,0.0,96,0.01,,---,0.01,VWS V14.01,2013-09-07 10:31:00,
2013-09-07 06:36:00,64.9,63.7,30.08,NE,56,0.0,0.0,96,0.00,,---,0.01,VWS V14.01,2013-09-07 10:36:00,
2013-09-07 06:41:00,64.7,63.2,30.08,NE,56,0.0,0.0,95,0.00,,---,0.01,VWS V14.01,2013-09-07 10:41:00,
2013-09-07 06:46:00,64.5,63.3,30.09,NE,56,0.0,0.0,96,0.00,,---,0.01,VWS V14.01,2013-09-07 10:46:00,
2013-09-07 06:51:00,64.4,63.2,30.09,NE,56,0.0,0.0,96,0.00,,---,0.01,VWS V14.01,2013-09-07 10:51:00,
2013-09-07 07:04:00,64.8,63.6,30.09,NE,56,0.0,0.0,96,0.00,,---,0.01,VWS V14.01,2013-09-07 11:04:00,
2013-09-07 07:09:00,64.9,63.7,30.09,NE,56,0.0,0.0,96,0.00,,---,0.01,VWS V14.01,2013-09-07 11:09:00,
2013-09-07 07:14:00,65.0,63.8,30.09,NE,56,0.0,1.0,96,0.00,,---,0.01,VWS V14.01,2013-09-07 11:14:00,
2013-09-07 07:19:00,65.0,63.8,30.09,NE,56,0.0,1.0,96,0.00,,---,0.01,VWS V14.01,2013-09-07 11:19:00,
2013-09-07 07:24:00,64.9,63.7,30.09,NE,56,0.0,1.0,96,0.00,,---,0.01,VWS V14.01,2013-09-07 11:24:00,
2013-09-07 07:29:00,64.9,63.7,30.10,NE,56,0.0,1.0,96,0.00,,---,0.01,VWS V14.01,2013-09-07 11:29:00,
2013-09-07 07:30:00,64.8,63.6,30.10,NE,56,0.0,1.0,96,0.00,,---,0.01,VWS V14.01,2013-09-07 11:30:00,
2013-09-07 07:34:00,64.9,63.7,30.10,NE,56,0.0,0.0,96,0.00,,---,0.01,VWS V14.01,2013-09-07 11:34:00,
2013-09-07 07:39:00,64.9,63.7,30.10,NE,56,0.0,0.0,96,0.00,,---,0.01,VWS V14.01,2013-09-07 11:39:00,
2013-09-07 07:44:00,64.7,63.5,30.10,NE,56,0.0,1.0,96,0.00,,---,0.01,VWS V14.01,2013-09-07 11:44:00,
2013-09-07 07:49:00,64.9,63.7,30.10,NE,56,0.0,1.0,96,0.00,,---,0.01,VWS V14.01,2013-09-07 11:49:00,
2013-09-07 07:54:00,65.2,64.0,30.10,NE,56,0.0,1.0,96,0.00,,---,0.01,VWS V14.01,2013-09-07 11:54:00,
2013-09-07 07:59:00,65.4,64.2,30.10,NE,56,0.0,1.0,96,0.00,,---,0.01,VWS V14.01,2013-09-07 11:59:00,
2013-09-07 08:00:00,65.7,64.5,30.10,NE,56,0.0,1.0,96,0.00,,---,0.01,VWS V14.01,2013-09-07 12:00:00,
2013-09-07 08:30:00,67.9,66.7,30.11,NE,45,0.0,3.0,96,0.00,,---,0.01,VWS V14.01,2013-09-07 12:30:00,
2013-09-07 09:00:00,71.2,67.8,30.11,NE,45,1.0,5.0,89,0.00,,---,0.01,VWS V14.01,2013-09-07 13:00:00,
2013-09-07 09:30:00,71.4,67.7,30.11,NE,45,1.0,6.0,88,0.00,,---,0.01,VWS V14.01,2013-09-07 13:30:00,
2013-09-07 10:00:00,74.2,69.4,30.11,NE,45,1.0,6.0,85,0.00,,---,0.01,VWS V14.01,2013-09-07 14:00:00,
2013-09-07 10:30:00,74.5,69.0,30.12,NE,45,3.0,9.0,83,0.00,,---,0.01,VWS V14.01,2013-09-07 14:30:00,
2013-09-07 11:08:00,74.5,69.0,30.12,NE,45,3.0,9.0,83,0.00,,---,0.01,VWS V14.01,2013-09-07 15:08:00,
2013-09-07 11:13:00,79.1,70.5,30.12,NE,56,1.0,3.0,75,0.00,,---,0.01,VWS V14.01,2013-09-07 15:13:00,
2013-09-07 11:18:00,79.6,71.0,30.12,NE,56,0.0,5.0,75,0.00,,---,0.01,VWS V14.01,2013-09-07 15:18:00,
2013-09-07 11:23:00,80.4,71.0,30.12,NE,56,2.0,5.0,73,0.00,,---,0.01,VWS V14.01,2013-09-07 15:23:00,
2013-09-07 11:28:00,80.3,70.9,30.12,NE,56,1.0,5.0,73,0.00,,---,0.01,VWS V14.01,2013-09-07 15:28:00,
2013-09-07 11:30:00,80.6,70.3,30.12,NE,56,0.0,5.0,71,0.00,,---,0.01,VWS V14.01,2013-09-07 15:30:00,
2013-09-07 11:33:00,80.6,70.8,30.12,NE,56,1.0,1.0,72,0.00,,---,0.01,VWS V14.01,2013-09-07 15:33:00,
2013-09-07 11:38:00,80.9,70.6,30.12,NE,56,0.0,4.0,71,0.00,,---,0.01,VWS V14.01,2013-09-07 15:38:00,
2013-09-07 12:00:00,79.3,69.1,30.11,NE,45,2.0,7.0,71,0.00,,---,0.01,VWS V14.01,2013-09-07 16:00:00,
2013-09-07 12:30:00,81.0,69.0,30.11,NE,45,1.0,7.0,67,0.00,,---,0.01,VWS V14.01,2013-09-07 16:30:00,
2013-09-07 13:00:00,81.4,69.4,30.09,NE,45,1.0,5.0,67,0.00,,---,0.01,VWS V14.01,2013-09-07 17:00:00,
2013-09-07 13:30:00,83.1,69.2,30.09,NE,45,1.0,5.0,63,0.00,,---,0.01,VWS V14.01,2013-09-07 17:30:00,
2013-09-07 14:00:00,82.5,68.2,30.08,NE,45,1.0,5.0,62,0.00,,---,0.01,VWS V14.01,2013-09-07 18:00:00,
2013-09-07 14:30:00,84.4,69.5,30.07,NE,45,1.0,5.0,61,0.00,,---,0.01,VWS V14.01,2013-09-07 18:30:00,
2013-09-07 15:00:00,85.2,68.8,30.05,NW,315,1.0,7.0,58,0.00,,---,0.01,VWS V14.01,2013-09-07 19:00:00,
2013-09-07 15:30:00,85.7,69.2,30.04,North,0,2.0,7.0,58,0.00,,---,0.01,VWS V14.01,2013-09-07 19:30:00,
2013-09-07 16:00:00,86.7,68.6,30.03,NW,315,2.0,7.0,55,0.00,,---,0.01,VWS V14.01,2013-09-07 20:00:00,
2013-09-07 16:30:00,86.5,68.4,30.02,WNW,292,2.0,9.0,55,0.00,,---,0.01,VWS V14.01,2013-09-07 20:30:00,
2013-09-07 17:24:00,86.5,68.4,30.02,WNW,292,2.0,9.0,55,0.00,,---,0.01,VWS V14.01,2013-09-07 21:24:00,
2013-09-07 17:29:00,87.0,69.9,30.01,West,274,1.0,4.0,57,0.00,,---,0.01,VWS V14.01,2013-09-07 21:29:00,
2013-09-07 17:30:00,87.3,69.7,30.01,West,274,2.0,4.0,56,0.00,,---,0.01,VWS V14.01,2013-09-07 21:30:00,
2013-09-07 17:34:00,87.6,70.0,30.01,West,274,1.0,2.0,56,0.00,,---,0.01,VWS V14.01,2013-09-07 21:34:00,
2013-09-07 17:39:00,87.8,70.2,30.00,West,274,0.0,4.0,56,0.00,,---,0.01,VWS V14.01,2013-09-07 21:39:00,
2013-09-07 17:44:00,87.0,69.4,30.00,West,273,3.0,5.0,56,0.00,,---,0.01,VWS V14.01,2013-09-07 21:44:00,
2013-09-07 17:49:00,86.5,68.4,30.00,West,274,1.0,5.0,55,0.00,,---,0.01,VWS V14.01,2013-09-07 21:49:00,
2013-09-07 17:54:00,86.1,70.6,30.00,West,274,0.0,5.0,60,0.00,,---,0.01,VWS V14.01,2013-09-07 21:54:00,
2013-09-07 19:56:00,86.4,69.9,30.00,West,274,0.0,5.0,58,0.00,,---,0.01,VWS V14.01,2013-09-07 23:56:00,
2013-09-07 20:00:00,77.7,71.8,30.00,West,274,0.0,5.0,82,0.00,,---,0.01,VWS V14.01,2013-09-08 00:00:00,
2013-09-07 20:01:00,77.8,71.9,30.00,West,273,0.0,5.0,82,0.00,,---,0.01,VWS V14.01,2013-09-08 00:01:00,
2013-09-07 20:06:00,77.2,71.6,30.00,West,274,0.0,0.0,83,0.00,,---,0.01,VWS V14.01,2013-09-08 00:06:00,
2013-09-07 20:11:00,76.7,71.5,30.00,West,273,0.0,0.0,84,0.00,,---,0.01,VWS V14.01,2013-09-08 00:11:00,
2013-09-07 20:16:00,76.3,71.5,30.00,West,274,0.0,0.0,85,0.00,,---,0.01,VWS V14.01,2013-09-08 00:16:00,
2013-09-07 20:21:00,76.0,71.5,30.00,West,273,0.0,0.0,86,0.00,,---,0.01,VWS V14.01,2013-09-08 00:21:00,
2013-09-07 20:26:00,75.6,71.5,30.00,West,274,0.0,0.0,87,0.00,,---,0.01,VWS V14.01,2013-09-08 00:26:00,
2013-09-07 20:30:00,75.3,71.2,30.00,West,273,0.0,0.0,87,0.00,,---,0.01,VWS V14.01,2013-09-08 00:30:00,
2013-09-07 20:31:00,75.4,71.3,30.00,West,274,0.0,0.0,87,0.00,,---,0.01,VWS V14.01,2013-09-08 00:31:00,
2013-09-07 20:36:00,75.0,70.9,30.00,West,274,0.0,0.0,87,0.00,,---,0.01,VWS V14.01,2013-09-08 00:36:00,
2013-09-07 20:41:00,74.5,70.7,30.00,West,274,0.0,0.0,88,0.00,,---,0.01,VWS V14.01,2013-09-08 00:41:00,
2013-09-07 20:46:00,74.1,70.7,30.00,West,274,0.0,0.0,89,0.00,,---,0.01,VWS V14.01,2013-09-08 00:46:00,
2013-09-07 20:51:00,73.7,70.3,30.00,West,273,0.0,0.0,89,0.00,,---,0.01,VWS V14.01,2013-09-08 00:51:00,
2013-09-07 20:56:00,73.4,70.3,30.01,West,273,0.0,0.0,90,0.00,,---,0.01,VWS V14.01,2013-09-08 00:56:00,
2013-09-07 21:00:00,73.2,70.1,30.01,West,273,0.0,0.0,90,0.00,,---,0.01,VWS V14.01,2013-09-08 01:00:00,
2013-09-07 21:01:00,73.2,70.1,30.01,West,273,0.0,0.0,90,0.00,,---,0.01,VWS V14.01,2013-09-08 01:01:00,
2013-09-07 21:06:00,72.9,69.8,30.01,West,273,0.0,0.0,90,0.00,,---,0.01,VWS V14.01,2013-09-08 01:06:00,
2013-09-07 21:11:00,72.6,69.8,30.01,West,274,0.0,0.0,91,0.00,,---,0.01,VWS V14.01,2013-09-08 01:11:00,
2013-09-07 21:16:00,72.2,69.4,30.01,West,274,0.0,0.0,91,0.00,,---,0.01,VWS V14.01,2013-09-08 01:16:00,
2013-09-07 21:21:00,72.1,69.3,30.01,West,274,0.0,0.0,91,0.00,,---,0.01,VWS V14.01,2013-09-08 01:21:00,
2013-09-07 21:26:00,71.9,69.1,30.01,West,274,0.0,0.0,91,0.00,,---,0.01,VWS V14.01,2013-09-08 01:26:00,
2013-09-07 21:30:00,71.7,69.3,30.01,West,274,0.0,0.0,92,0.00,,---,0.01,VWS V14.01,2013-09-08 01:30:00,
2013-09-07 21:31:00,71.7,69.3,30.01,West,274,0.0,0.0,92,0.00,,---,0.01,VWS V14.01,2013-09-08 01:31:00,
2013-09-07 21:36:00,71.6,69.2,30.01,West,274,0.0,0.0,92,0.00,,---,0.01,VWS V14.01,2013-09-08 01:36:00,
2013-09-07 21:41:00,71.5,69.4,30.01,West,274,0.0,0.0,93,0.00,,---,0.01,VWS V14.01,2013-09-08 01:41:00,
2013-09-07 21:46:00,71.3,69.2,30.01,West,274,0.0,0.0,93,0.00,,---,0.01,VWS V14.01,2013-09-08 01:46:00,
2013-09-07 21:51:00,71.2,69.1,30.01,West,274,0.0,0.0,93,0.00,,---,0.01,VWS V14.01,2013-09-08 01:51:00,
2013-09-07 21:56:00,71.1,69.0,30.01,West,274,0.0,0.0,93,0.00,,---,0.01,VWS V14.01,2013-09-08 01:56:00,
2013-09-07 22:00:00,70.8,68.7,30.01,West,273,0.0,0.0,93,0.00,,---,0.01,VWS V14.01,2013-09-08 02:00:00,
2013-09-07 22:01:00,70.9,68.8,30.01,West,274,0.0,0.0,93,0.00,,---,0.01,VWS V14.01,2013-09-08 02:01:00,
2013-09-07 22:06:00,70.6,68.5,30.01,West,274,0.0,0.0,93,0.00,,---,0.01,VWS V14.01,2013-09-08 02:06:00,
2013-09-07 22:11:00,70.4,68.3,30.01,West,273,0.0,0.0,93,0.00,,---,0.01,VWS V14.01,2013-09-08 02:11:00,
2013-09-07 22:16:00,70.2,68.1,30.01,West,274,0.0,0.0,93,0.00,,---,0.01,VWS V14.01,2013-09-08 02:16:00,
2013-09-07 22:21:00,70.0,67.9,30.01,West,274,0.0,0.0,93,0.00,,---,0.01,VWS V14.01,2013-09-08 02:21:00,
2013-09-07 22:26:00,69.9,67.8,30.01,West,274,0.0,0.0,93,0.00,,---,0.01,VWS V14.01,2013-09-08 02:26:00,
2013-09-07 22:30:00,69.8,67.7,30.02,West,273,0.0,0.0,93,0.00,,---,0.01,VWS V14.01,2013-09-08 02:30:00,
2013-09-07 22:31:00,69.8,67.7,30.02,West,274,0.0,0.0,93,0.00,,---,0.01,VWS V14.01,2013-09-08 02:31:00,
2013-09-07 22:36:00,69.7,67.9,30.02,West,273,0.0,0.0,94,0.00,,---,0.01,VWS V14.01,2013-09-08 02:36:00,
2013-09-07 22:41:00,69.7,67.9,30.01,West,274,0.0,0.0,94,0.00,,---,0.01,VWS V14.01,2013-09-08 02:41:00,
2013-09-07 22:46:00,69.6,67.8,30.01,West,274,0.0,0.0,94,0.00,,---,0.01,VWS V14.01,2013-09-08 02:46:00,
2013-09-07 22:51:00,69.6,67.8,30.02,West,273,0.0,0.0,94,0.00,,---,0.01,VWS V14.01,2013-09-08 02:51:00,